Time,TemperatureF,DewpointF,PressureIn,WindDirection,WindDirectionDegrees,WindSpeedMPH,WindSpeedGustMPH,Humidity,HourlyPrecipIn,Conditions,Clouds,dailyrainin,SoftwareType,DateUTC
2013-03-11 00:07:00,33.4,27.0,29.97,NE,54,15.0,15.0,77,0.00,,,0.00,meteohub,2013-03-11 00:07:00,
2013-03-11 00:12:00,33.3,26.8,29.97,NE,34,5.0,18.0,77,0.00,,,0.00,meteohub,2013-03-11 00:12:00,
2013-03-11 00:17:00,33.3,26.8,29.98,NE,51,13.0,18.0,77,0.00,,,0.00,meteohub,2013-03-11 00:17:00,
2013-03-11 00:22:00,33.3,26.8,29.98,East,90,9.0,18.0,77,0.00,,,0.00,meteohub,2013-03-11 00:22:00,
2013-03-11 00:32:00,33.3,26.8,29.98,NE,44,13.0,19.0,77,0.00,,,0.00,meteohub,2013-03-11 00:32:00,
2013-03-11 00:42:00,33.1,26.6,29.98,NE,42,11.0,21.0,77,0.00,,,0.00,meteohub,2013-03-11 00:42:00,
2013-03-11 00:47:00,33.1,26.6,29.97,NE,51,25.0,28.0,77,0.00,,,0.00,meteohub,2013-03-11 00:47:00,
2013-03-11 00:52:00,33.1,26.6,29.98,NE,42,10.0,28.0,77,0.00,,,0.00,meteohub,2013-03-11 00:52:00,
2013-03-11 00:57:00,32.9,26.4,29.98,ESE,109,14.0,25.0,77,0.00,,,0.00,meteohub,2013-03-11 00:57:00,
2013-03-11 01:02:00,32.9,26.4,29.98,ENE,78,9.0,25.0,77,0.00,,,0.00,meteohub,2013-03-11 01:02:00,
2013-03-11 01:07:00,32.7,26.2,29.98,NNE,26,9.0,22.0,77,0.00,,,0.00,meteohub,2013-03-11 01:07:00,
2013-03-11 01:12:00,32.7,26.2,29.98,NNE,22,15.0,21.0,77,0.00,,,0.00,meteohub,2013-03-11 01:12:00,
2013-03-11 01:22:00,32.5,26.1,29.98,ENE,78,10.0,21.0,77,0.00,,,0.00,meteohub,2013-03-11 01:22:00,
2013-03-11 01:27:00,32.4,25.9,29.99,ENE,71,10.0,21.0,77,0.00,,,0.00,meteohub,2013-03-11 01:27:00,
2013-03-11 01:32:00,32.4,25.9,29.98,NE,50,10.0,18.0,77,0.00,,,0.00,meteohub,2013-03-11 01:32:00,
2013-03-11 01:37:00,32.2,25.7,29.99,NE,42,19.0,19.0,77,0.00,,,0.00,meteohub,2013-03-11 01:37:00,
2013-03-11 01:42:00,32.2,25.7,29.99,ENE,58,9.0,24.0,77,0.00,,,0.00,meteohub,2013-03-11 01:42:00,
2013-03-11 01:52:00,31.8,25.5,29.99,ENE,70,9.0,24.0,77,0.00,,,0.00,meteohub,2013-03-11 01:52:00,
2013-03-11 01:57:00,31.8,25.5,29.99,ENE,74,6.0,24.0,77,0.00,,,0.00,meteohub,2013-03-11 01:57:00,
2013-03-11 02:02:00,31.8,25.5,29.99,NE,34,10.0,24.0,77,0.00,,,0.00,meteohub,2013-03-11 02:02:00,
2013-03-11 02:07:00,31.8,25.5,29.99,ENE,64,6.0,22.0,77,0.00,,,0.00,meteohub,2013-03-11 02:07:00,
2013-03-11 02:12:00,31.6,25.3,29.99,East,86,10.0,19.0,77,0.00,,,0.00,meteohub,2013-03-11 02:12:00,
2013-03-11 02:22:00,31.6,25.3,29.99,NNE,30,11.0,20.0,77,0.00,,,0.00,meteohub,2013-03-11 02:22:00,
2013-03-11 02:27:00,31.5,25.2,29.99,ENE,75,10.0,21.0,77,0.00,,,0.00,meteohub,2013-03-11 02:27:00,
2013-03-11 02:37:00,31.5,25.2,29.99,NE,55,11.0,21.0,77,0.00,,,0.00,meteohub,2013-03-11 02:37:00,
2013-03-11 02:47:00,31.3,24.6,29.99,ENE,77,6.0,21.0,76,0.00,,,0.00,meteohub,2013-03-11 02:47:00,
2013-03-11 02:57:00,31.3,24.6,29.99,NE,49,14.0,22.0,76,0.00,,,0.00,meteohub,2013-03-11 02:57:00,
2013-03-11 03:02:00,31.3,24.6,29.99,North,355,13.0,22.0,76,0.00,,,0.00,meteohub,2013-03-11 03:02:00,
2013-03-11 03:07:00,31.1,24.8,29.99,ENE,60,10.0,22.0,77,0.00,,,0.00,meteohub,2013-03-11 03:07:00,
2013-03-11 03:12:00,30.9,24.6,29.99,ENE,62,10.0,22.0,77,0.00,,,0.00,meteohub,2013-03-11 03:12:00,
2013-03-11 03:17:00,30.9,24.6,29.99,NE,49,8.0,21.0,77,0.00,,,0.00,meteohub,2013-03-11 03:17:00,
2013-03-11 03:22:00,30.9,24.6,29.99,ENE,59,11.0,24.0,77,0.00,,,0.00,meteohub,2013-03-11 03:22:00,
2013-03-11 03:27:00,30.7,24.4,29.99,ENE,65,10.0,24.0,77,0.00,,,0.00,meteohub,2013-03-11 03:27:00,
2013-03-11 03:32:00,30.7,24.4,30.00,ENE,67,14.0,22.0,77,0.00,,,0.00,meteohub,2013-03-11 03:32:00,
2013-03-11 03:37:00,30.7,24.4,30.00,NE,35,9.0,22.0,77,0.00,,,0.00,meteohub,2013-03-11 03:37:00,
2013-03-11 03:47:00,30.6,24.3,30.00,NE,37,13.0,19.0,77,0.00,,,0.00,meteohub,2013-03-11 03:47:00,
2013-03-11 03:52:00,30.6,24.3,30.00,NE,46,9.0,19.0,77,0.00,,,0.00,meteohub,2013-03-11 03:52:00,
2013-03-11 03:57:00,30.6,24.3,30.00,NE,42,6.0,19.0,77,0.00,,,0.00,meteohub,2013-03-11 03:57:00,
2013-03-11 04:02:00,30.6,24.3,30.00,ENE,58,6.0,18.0,77,0.00,,,0.00,meteohub,2013-03-11 04:02:00,
2013-03-11 04:07:00,30.6,23.9,30.00,NE,42,13.0,18.0,76,0.00,,,0.00,meteohub,2013-03-11 04:07:00,
2013-03-11 04:12:00,30.6,23.9,30.00,NNE,20,14.0,18.0,76,0.00,,,0.00,meteohub,2013-03-11 04:12:00,
2013-03-11 04:17:00,30.6,23.9,30.00,ENE,69,11.0,20.0,76,0.00,,,0.00,meteohub,2013-03-11 04:17:00,
2013-03-11 04:27:00,30.4,23.7,30.00,NNW,348,13.0,20.0,76,0.00,,,0.00,meteohub,2013-03-11 04:27:00,
2013-03-11 04:32:00,30.4,23.7,30.00,ENE,59,14.0,21.0,76,0.00,,,0.00,meteohub,2013-03-11 04:32:00,
2013-03-11 04:42:00,30.4,23.7,30.01,East,82,10.0,19.0,76,0.00,,,0.00,meteohub,2013-03-11 04:42:00,
2013-03-11 04:47:00,30.4,23.7,30.01,ENE,71,6.0,21.0,76,0.00,,,0.00,meteohub,2013-03-11 04:47:00,
2013-03-11 04:52:00,30.2,23.5,30.01,NE,38,15.0,21.0,76,0.00,,,0.00,meteohub,2013-03-11 04:52:00,
2013-03-11 04:57:00,30.0,23.4,30.01,ENE,57,10.0,21.0,76,0.00,,,0.00,meteohub,2013-03-11 04:57:00,
2013-03-11 05:07:00,30.0,23.4,30.01,NE,49,11.0,24.0,76,0.00,,,0.00,meteohub,2013-03-11 05:07:00,
2013-03-11 05:12:00,30.0,23.4,30.01,ENE,70,6.0,24.0,76,0.00,,,0.00,meteohub,2013-03-11 05:12:00,
2013-03-11 05:17:00,30.0,23.4,30.01,ENE,61,10.0,24.0,76,0.00,,,0.00,meteohub,2013-03-11 05:17:00,
2013-03-11 05:22:00,30.0,23.4,30.02,NE,45,4.0,16.0,76,0.00,,,0.00,meteohub,2013-03-11 05:22:00,
2013-03-11 05:32:00,29.8,23.5,30.02,NE,39,5.0,19.0,77,0.00,,,0.00,meteohub,2013-03-11 05:32:00,
2013-03-11 05:37:00,29.8,23.5,30.02,ENE,73,13.0,16.0,77,0.00,,,0.00,meteohub,2013-03-11 05:37:00,
2013-03-11 05:42:00,29.7,23.4,30.02,NNE,22,6.0,15.0,77,0.00,,,0.00,meteohub,2013-03-11 05:42:00,
2013-03-11 05:47:00,29.7,23.4,30.02,NE,36,10.0,16.0,77,0.00,,,0.00,meteohub,2013-03-11 05:47:00,
2013-03-11 05:52:00,29.7,23.4,30.02,NE,49,8.0,16.0,77,0.00,,,0.00,meteohub,2013-03-11 05:52:00,
2013-03-11 05:57:00,29.5,23.5,30.02,ENE,59,14.0,19.0,78,0.00,,,0.00,meteohub,2013-03-11 05:57:00,
2013-03-11 06:07:00,29.5,23.5,30.02,ENE,61,16.0,20.0,78,0.00,,,0.00,meteohub,2013-03-11 06:07:00,
2013-03-11 06:12:00,29.5,23.5,30.03,NE,42,8.0,25.0,78,0.00,,,0.00,meteohub,2013-03-11 06:12:00,
2013-03-11 06:17:00,29.5,23.5,30.03,North,5,11.0,25.0,78,0.00,,,0.00,meteohub,2013-03-11 06:17:00,
2013-03-11 06:22:00,29.5,23.5,30.03,NE,51,15.0,20.0,78,0.00,,,0.00,meteohub,2013-03-11 06:22:00,
2013-03-11 06:27:00,29.5,23.5,30.03,NE,42,13.0,18.0,78,0.00,,,0.00,meteohub,2013-03-11 06:27:00,
2013-03-11 06:32:00,29.5,23.5,30.03,NNE,28,11.0,18.0,78,0.00,,,0.00,meteohub,2013-03-11 06:32:00,
2013-03-11 06:42:00,29.5,23.5,30.03,NE,36,10.0,20.0,78,0.00,,,0.00,meteohub,2013-03-11 06:42:00,
2013-03-11 06:47:00,29.5,23.5,30.03,NE,42,13.0,20.0,78,0.00,,,0.00,meteohub,2013-03-11 06:47:00,
2013-03-11 06:52:00,29.5,23.5,30.04,ENE,60,11.0,20.0,78,0.00,,,0.00,meteohub,2013-03-11 06:52:00,
2013-03-11 07:02:00,29.5,23.5,30.04,ENE,58,10.0,21.0,78,0.00,,,0.00,meteohub,2013-03-11 07:02:00,
2013-03-11 07:07:00,29.5,23.5,30.04,NNE,26,13.0,21.0,78,0.00,,,0.00,meteohub,2013-03-11 07:07:00,
2013-03-11 07:12:00,29.5,23.5,30.04,ENE,69,11.0,20.0,78,0.00,,,0.00,meteohub,2013-03-11 07:12:00,
2013-03-11 07:17:00,29.5,23.5,30.04,ENE,67,9.0,21.0,78,0.00,,,0.00,meteohub,2013-03-11 07:17:00,
2013-03-11 07:22:00,29.5,23.7,30.04,East,82,9.0,21.0,79,0.00,,,0.00,meteohub,2013-03-11 07:22:00,
2013-03-11 07:27:00,29.7,23.9,30.04,NE,50,13.0,21.0,79,0.00,,,0.00,meteohub,2013-03-11 07:27:00,
2013-03-11 07:32:00,29.7,23.7,30.05,NE,42,11.0,21.0,78,0.00,,,0.00,meteohub,2013-03-11 07:32:00,
2013-03-11 07:37:00,29.7,23.7,30.05,NE,40,16.0,21.0,78,0.00,,,0.00,meteohub,2013-03-11 07:37:00,
2013-03-11 07:47:00,29.8,23.9,30.05,NE,41,8.0,20.0,78,0.00,,,0.00,meteohub,2013-03-11 07:47:00,
2013-03-11 07:52:00,30.0,24.1,30.05,ENE,61,5.0,26.0,78,0.00,,,0.00,meteohub,2013-03-11 07:52:00,
2013-03-11 08:02:00,30.4,24.3,30.05,NNE,17,9.0,26.0,78,0.00,,,0.00,meteohub,2013-03-11 08:02:00,
2013-03-11 08:07:00,30.6,24.4,30.05,NE,34,10.0,21.0,78,0.00,,,0.00,meteohub,2013-03-11 08:07:00,
2013-03-11 08:12:00,30.7,24.6,30.06,NE,48,8.0,21.0,78,0.00,,,0.00,meteohub,2013-03-11 08:12:00,
2013-03-11 08:17:00,30.9,24.6,30.06,ENE,63,10.0,19.0,77,0.00,,,0.00,meteohub,2013-03-11 08:17:00,
2013-03-11 08:22:00,31.1,24.8,30.06,NE,48,13.0,21.0,77,0.00,,,0.00,meteohub,2013-03-11 08:22:00,
2013-03-11 08:27:00,31.3,24.6,30.06,NNE,25,11.0,26.0,76,0.00,,,0.00,meteohub,2013-03-11 08:27:00,
2013-03-11 08:37:00,31.8,25.2,30.06,NE,52,19.0,26.0,76,0.00,,,0.00,meteohub,2013-03-11 08:37:00,
2013-03-11 08:42:00,32.2,25.5,30.06,NE,36,8.0,26.0,76,0.00,,,0.00,meteohub,2013-03-11 08:42:00,
2013-03-11 08:47:00,32.2,25.2,30.06,East,82,10.0,29.0,75,0.00,,,0.00,meteohub,2013-03-11 08:47:00,
2013-03-11 08:52:00,32.4,25.3,30.06,ENE,69,6.0,29.0,75,0.00,,,0.00,meteohub,2013-03-11 08:52:00,
2013-03-11 08:57:00,32.5,25.5,30.06,ENE,74,13.0,29.0,75,0.00,,,0.00,meteohub,2013-03-11 08:57:00,
2013-03-11 09:02:00,32.7,25.3,30.06,East,83,21.0,26.0,74,0.00,,,0.00,meteohub,2013-03-11 09:02:00,
2013-03-11 09:07:00,32.9,25.2,30.06,ENE,59,16.0,30.0,73,0.00,,,0.00,meteohub,2013-03-11 09:07:00,
2013-03-11 09:12:00,33.1,25.3,30.06,NNE,16,15.0,30.0,73,0.00,,,0.00,meteohub,2013-03-11 09:12:00,
2013-03-11 09:17:00,33.3,25.2,30.06,East,92,9.0,31.0,72,0.00,,,0.00,meteohub,2013-03-11 09:17:00,
2013-03-11 09:22:00,33.4,25.0,30.06,East,92,10.0,31.0,71,0.00,,,0.00,meteohub,2013-03-11 09:22:00,
2013-03-11 09:32:00,34.2,25.7,30.06,East,95,13.0,30.0,71,0.00,,,0.00,meteohub,2013-03-11 09:32:00,
2013-03-11 09:37:00,34.2,25.3,30.07,NE,46,14.0,28.0,70,0.00,,,0.00,meteohub,2013-03-11 09:37:00,
2013-03-11 09:47:00,35.1,26.2,30.07,ENE,61,14.0,24.0,70,0.00,,,0.00,meteohub,2013-03-11 09:47:00,
2013-03-11 09:52:00,35.1,25.5,30.07,NE,38,11.0,24.0,68,0.00,,,0.00,meteohub,2013-03-11 09:52:00,
2013-03-11 10:02:00,35.1,25.5,30.07,ENE,71,11.0,22.0,68,0.00,,,0.00,meteohub,2013-03-11 10:02:00,
2013-03-11 10:07:00,35.4,25.9,30.07,NE,55,16.0,29.0,68,0.00,,,0.00,meteohub,2013-03-11 10:07:00,
2013-03-11 10:12:00,36.0,26.1,30.07,East,84,24.0,29.0,67,0.00,,,0.00,meteohub,2013-03-11 10:12:00,
2013-03-11 10:17:00,36.0,25.3,30.07,ENE,67,15.0,32.0,65,0.00,,,0.00,meteohub,2013-03-11 10:17:00,
2013-03-11 10:22:00,36.1,25.5,30.07,ENE,61,14.0,32.0,65,0.00,,,0.00,meteohub,2013-03-11 10:22:00,
2013-03-11 10:27:00,36.1,25.5,30.07,ENE,61,15.0,32.0,65,0.00,,,0.00,meteohub,2013-03-11 10:27:00,
2013-03-11 10:37:00,36.7,26.1,30.08,ENE,76,11.0,32.0,65,0.00,,,0.00,meteohub,2013-03-11 10:37:00,
2013-03-11 10:42:00,36.9,25.9,30.08,NE,41,21.0,32.0,64,0.00,,,0.00,meteohub,2013-03-11 10:42:00,
2013-03-11 10:47:00,36.9,25.5,30.08,ENE,74,15.0,30.0,63,0.00,,,0.00,meteohub,2013-03-11 10:47:00,
2013-03-11 10:52:00,36.9,25.0,30.08,ENE,71,11.0,30.0,62,0.00,,,0.00,meteohub,2013-03-11 10:52:00,
2013-03-11 10:57:00,36.9,24.3,30.08,NE,41,11.0,30.0,60,0.00,,,0.00,meteohub,2013-03-11 10:57:00,
2013-03-11 11:02:00,36.7,24.4,30.08,NE,49,9.0,30.0,61,0.00,,,0.00,meteohub,2013-03-11 11:02:00,
2013-03-11 11:07:00,36.7,25.0,30.08,NE,36,9.0,28.0,62,0.00,,,0.00,meteohub,2013-03-11 11:07:00,
2013-03-11 11:12:00,37.0,24.8,30.08,NNE,29,11.0,28.0,61,0.00,,,0.00,meteohub,2013-03-11 11:12:00,
2013-03-11 11:22:00,36.9,24.6,30.08,ENE,73,20.0,28.0,61,0.00,,,0.00,meteohub,2013-03-11 11:22:00,
2013-03-11 11:27:00,36.3,24.1,30.08,ENE,62,16.0,28.0,61,0.00,,,0.00,meteohub,2013-03-11 11:27:00,
2013-03-11 11:37:00,36.9,23.9,30.08,ENE,67,13.0,29.0,59,0.00,,,0.00,meteohub,2013-03-11 11:37:00,
2013-03-11 11:42:00,36.0,23.4,30.08,NNE,28,20.0,29.0,60,0.00,,,0.00,meteohub,2013-03-11 11:42:00,
2013-03-11 11:52:00,37.2,23.4,30.08,ENE,73,21.0,29.0,57,0.00,,,0.00,meteohub,2013-03-11 11:52:00,
2013-03-11 11:57:00,36.3,23.0,30.08,NE,46,11.0,29.0,58,0.00,,,0.00,meteohub,2013-03-11 11:57:00,
2013-03-11 12:02:00,37.6,23.7,30.08,ENE,71,20.0,29.0,57,0.00,,,0.00,meteohub,2013-03-11 12:02:00,
2013-03-11 12:07:00,37.9,24.4,30.08,ENE,76,13.0,26.0,58,0.00,,,0.00,meteohub,2013-03-11 12:07:00,
2013-03-11 12:12:00,37.6,22.8,30.08,ENE,65,26.0,26.0,55,0.00,,,0.00,meteohub,2013-03-11 12:12:00,
2013-03-11 12:22:00,36.7,22.1,30.08,ENE,76,10.0,28.0,55,0.00,,,0.00,meteohub,2013-03-11 12:22:00,
2013-03-11 12:27:00,37.0,23.2,30.08,ENE,73,5.0,28.0,57,0.00,,,0.00,meteohub,2013-03-11 12:27:00,
2013-03-11 12:32:00,38.5,23.7,30.08,ENE,57,13.0,26.0,55,0.00,,,0.00,meteohub,2013-03-11 12:32:00,
2013-03-11 12:37:00,37.9,22.3,30.08,ENE,61,6.0,26.0,53,0.00,,,0.00,meteohub,2013-03-11 12:37:00,
2013-03-11 12:42:00,37.8,22.1,30.08,ENE,68,10.0,26.0,53,0.00,,,0.00,meteohub,2013-03-11 12:42:00,
2013-03-11 12:47:00,37.6,22.5,30.08,ENE,67,10.0,25.0,54,0.00,,,0.00,meteohub,2013-03-11 12:47:00,
2013-03-11 12:52:00,38.8,23.5,30.08,East,84,13.0,25.0,54,0.00,,,0.00,meteohub,2013-03-11 12:52:00,
2013-03-11 12:57:00,40.6,24.8,30.08,East,80,19.0,21.0,53,0.00,,,0.00,meteohub,2013-03-11 12:57:00,
2013-03-11 13:07:00,39.7,22.1,30.07,ENE,63,15.0,25.0,49,0.00,,,0.00,meteohub,2013-03-11 13:07:00,
2013-03-11 13:17:00,40.3,22.6,30.07,ENE,71,11.0,30.0,49,0.00,,,0.00,meteohub,2013-03-11 13:17:00,
2013-03-11 13:22:00,40.5,21.7,30.07,ENE,76,18.0,30.0,47,0.00,,,0.00,meteohub,2013-03-11 13:22:00,
2013-03-11 13:32:00,41.4,21.6,30.07,ENE,63,18.0,32.0,45,0.00,,,0.00,meteohub,2013-03-11 13:32:00,
2013-03-11 13:37:00,40.3,20.7,30.07,ENE,57,10.0,30.0,45,0.00,,,0.00,meteohub,2013-03-11 13:37:00,
2013-03-11 13:47:00,38.3,20.3,30.07,ENE,71,18.0,30.0,48,0.00,,,0.00,meteohub,2013-03-11 13:47:00,
2013-03-11 13:52:00,39.4,20.3,30.07,East,94,16.0,26.0,46,0.00,,,0.00,meteohub,2013-03-11 13:52:00,
2013-03-11 13:57:00,38.7,20.7,30.07,ENE,57,9.0,26.0,48,0.00,,,0.00,meteohub,2013-03-11 13:57:00,
2013-03-11 14:02:00,38.7,21.2,30.07,NE,46,10.0,30.0,49,0.00,,,0.00,meteohub,2013-03-11 14:02:00,
2013-03-11 14:07:00,38.5,20.5,30.07,East,91,10.0,30.0,48,0.00,,,0.00,meteohub,2013-03-11 14:07:00,
2013-03-11 14:17:00,38.8,20.3,30.07,NE,42,14.0,24.0,47,0.00,,,0.00,meteohub,2013-03-11 14:17:00,
2013-03-11 14:22:00,38.8,20.8,30.08,NE,46,11.0,24.0,48,0.00,,,0.00,meteohub,2013-03-11 14:22:00,
2013-03-11 14:27:00,38.3,20.3,30.08,ENE,65,6.0,24.0,48,0.00,,,0.00,meteohub,2013-03-11 14:27:00,
2013-03-11 14:37:00,39.6,21.9,30.07,East,87,16.0,24.0,49,0.00,,,0.00,meteohub,2013-03-11 14:37:00,
2013-03-11 14:42:00,39.7,21.2,30.07,East,86,11.0,26.0,47,0.00,,,0.00,meteohub,2013-03-11 14:42:00,
2013-03-11 14:47:00,39.7,19.6,30.07,NE,49,8.0,26.0,44,0.00,,,0.00,meteohub,2013-03-11 14:47:00,
2013-03-11 14:57:00,41.2,21.4,30.07,East,88,24.0,28.0,45,0.00,,,0.00,meteohub,2013-03-11 14:57:00,
2013-03-11 15:02:00,39.9,18.1,30.07,ENE,59,9.0,26.0,41,0.00,,,0.00,meteohub,2013-03-11 15:02:00,
2013-03-11 15:07:00,38.8,18.3,30.07,ENE,63,20.0,31.0,43,0.00,,,0.00,meteohub,2013-03-11 15:07:00,
2013-03-11 15:17:00,38.8,20.3,30.07,East,88,19.0,32.0,47,0.00,,,0.00,meteohub,2013-03-11 15:17:00,
2013-03-11 15:22:00,39.7,21.2,30.07,ENE,74,18.0,32.0,47,0.00,,,0.00,meteohub,2013-03-11 15:22:00,
2013-03-11 15:27:00,39.7,21.2,30.07,East,79,14.0,26.0,47,0.00,,,0.00,meteohub,2013-03-11 15:27:00,
2013-03-11 15:32:00,39.4,20.8,30.07,ENE,71,10.0,26.0,47,0.00,,,0.00,meteohub,2013-03-11 15:32:00,
2013-03-11 15:37:00,39.0,19.4,30.07,NNE,29,19.0,25.0,45,0.00,,,0.00,meteohub,2013-03-11 15:37:00,
2013-03-11 15:42:00,39.0,20.5,30.07,NE,50,15.0,25.0,47,0.00,,,0.00,meteohub,2013-03-11 15:42:00,
2013-03-11 15:47:00,38.5,19.6,30.07,ENE,61,18.0,22.0,46,0.00,,,0.00,meteohub,2013-03-11 15:47:00,
2013-03-11 15:52:00,38.1,19.6,30.07,East,79,13.0,26.0,47,0.00,,,0.00,meteohub,2013-03-11 15:52:00,
2013-03-11 16:02:00,40.5,21.4,30.07,NNE,30,6.0,26.0,46,0.00,,,0.00,meteohub,2013-03-11 16:02:00,
2013-03-11 16:12:00,38.1,20.7,30.08,ENE,69,13.0,24.0,49,0.00,,,0.00,meteohub,2013-03-11 16:12:00,
2013-03-11 16:17:00,37.8,21.2,30.07,NE,46,13.0,24.0,51,0.00,,,0.00,meteohub,2013-03-11 16:17:00,
2013-03-11 16:22:00,37.0,20.7,30.08,ENE,63,14.0,22.0,51,0.00,,,0.00,meteohub,2013-03-11 16:22:00,
2013-03-11 16:27:00,36.7,21.2,30.08,East,94,11.0,22.0,53,0.00,,,0.00,meteohub,2013-03-11 16:27:00,
2013-03-11 16:32:00,37.0,21.6,30.08,ENE,74,6.0,22.0,53,0.00,,,0.00,meteohub,2013-03-11 16:32:00,
2013-03-11 16:37:00,38.5,22.8,30.08,North,5,14.0,20.0,53,0.00,,,0.00,meteohub,2013-03-11 16:37:00,
2013-03-11 16:42:00,38.8,23.5,30.08,NE,48,19.0,24.0,54,0.00,,,0.00,meteohub,2013-03-11 16:42:00,
2013-03-11 16:47:00,37.9,23.2,30.08,NNE,15,10.0,24.0,55,0.00,,,0.00,meteohub,2013-03-11 16:47:00,
2013-03-11 16:57:00,36.3,23.4,30.08,NNE,15,18.0,22.0,59,0.00,,,0.00,meteohub,2013-03-11 16:57:00,
2013-03-11 17:07:00,37.0,22.8,30.08,NNE,17,14.0,19.0,56,0.00,,,0.00,meteohub,2013-03-11 17:07:00,
2013-03-11 17:12:00,37.4,23.5,30.08,East,86,10.0,22.0,57,0.00,,,0.00,meteohub,2013-03-11 17:12:00,
2013-03-11 17:22:00,37.9,23.7,30.09,NE,37,10.0,22.0,56,0.00,,,0.00,meteohub,2013-03-11 17:22:00,
2013-03-11 17:27:00,37.6,22.5,30.09,ENE,65,10.0,19.0,54,0.00,,,0.00,meteohub,2013-03-11 17:27:00,
2013-03-11 17:37:00,36.3,22.1,30.09,ENE,67,4.0,19.0,56,0.00,,,0.00,meteohub,2013-03-11 17:37:00,
2013-03-11 17:42:00,35.8,22.1,30.09,NE,53,6.0,18.0,57,0.00,,,0.00,meteohub,2013-03-11 17:42:00,
2013-03-11 17:47:00,35.2,21.9,30.10,NE,55,9.0,18.0,58,0.00,,,0.00,meteohub,2013-03-11 17:47:00,
2013-03-11 17:57:00,35.1,23.0,30.10,NE,55,6.0,16.0,61,0.00,,,0.00,meteohub,2013-03-11 17:57:00,
2013-03-11 18:02:00,34.9,23.9,30.10,NE,53,5.0,16.0,64,0.00,,,0.00,meteohub,2013-03-11 18:02:00,
2013-03-11 18:07:00,34.9,24.3,30.10,NNE,20,8.0,15.0,65,0.00,,,0.00,meteohub,2013-03-11 18:07:00,
2013-03-11 18:17:00,34.9,25.0,30.11,NNE,26,14.0,18.0,67,0.00,,,0.00,meteohub,2013-03-11 18:17:00,
2013-03-11 18:22:00,34.5,25.0,30.11,NE,39,11.0,18.0,68,0.00,,,0.00,meteohub,2013-03-11 18:22:00,
2013-03-11 18:32:00,34.2,25.0,30.11,NE,53,6.0,18.0,69,0.00,,,0.00,meteohub,2013-03-11 18:32:00,
2013-03-11 18:42:00,34.0,24.8,30.11,NE,41,8.0,16.0,69,0.00,,,0.00,meteohub,2013-03-11 18:42:00,
2013-03-11 18:47:00,33.8,24.8,30.11,ENE,72,10.0,16.0,69,0.00,,,0.00,meteohub,2013-03-11 18:47:00,
2013-03-11 18:52:00,33.4,24.4,30.11,NE,36,5.0,16.0,69,0.00,,,0.00,meteohub,2013-03-11 18:52:00,
2013-03-11 19:02:00,33.1,24.6,30.12,NE,43,5.0,11.0,71,0.00,,,0.00,meteohub,2013-03-11 19:02:00,
2013-03-11 19:12:00,32.5,24.4,30.12,NE,45,5.0,9.0,72,0.00,,,0.00,meteohub,2013-03-11 19:12:00,
2013-03-11 19:22:00,32.5,24.3,30.12,NE,34,2.0,9.0,71,0.00,,,0.00,meteohub,2013-03-11 19:22:00,
2013-03-11 19:27:00,32.5,24.3,30.12,ENE,59,4.0,10.0,71,0.00,,,0.00,meteohub,2013-03-11 19:27:00,
2013-03-11 19:32:00,32.4,24.3,30.12,NNE,23,6.0,11.0,72,0.00,,,0.00,meteohub,2013-03-11 19:32:00,
2013-03-11 19:37:00,32.4,24.3,30.12,NE,40,2.0,14.0,72,0.00,,,0.00,meteohub,2013-03-11 19:37:00,
2013-03-11 19:42:00,32.2,24.4,30.12,NE,44,5.0,14.0,73,0.00,,,0.00,meteohub,2013-03-11 19:42:00,
2013-03-11 19:47:00,32.2,24.4,30.12,NE,41,2.0,14.0,73,0.00,,,0.00,meteohub,2013-03-11 19:47:00,
2013-03-11 19:52:00,32.2,24.4,30.13,NE,41,10.0,13.0,73,0.00,,,0.00,meteohub,2013-03-11 19:52:00,
2013-03-11 19:57:00,32.2,24.8,30.13,NE,37,10.0,14.0,74,0.00,,,0.00,meteohub,2013-03-11 19:57:00,
2013-03-11 20:02:00,32.0,24.6,30.13,NE,39,5.0,14.0,74,0.00,,,0.00,meteohub,2013-03-11 20:02:00,
2013-03-11 20:07:00,32.0,24.6,30.13,NNE,33,6.0,14.0,74,0.00,,,0.00,meteohub,2013-03-11 20:07:00,
2013-03-11 20:12:00,31.8,24.4,30.13,NNE,28,6.0,13.0,74,0.00,,,0.00,meteohub,2013-03-11 20:12:00,
2013-03-11 20:22:00,31.6,24.6,30.13,NE,47,6.0,11.0,75,0.00,,,0.00,meteohub,2013-03-11 20:22:00,
2013-03-11 20:27:00,31.5,24.4,30.13,NNE,19,6.0,11.0,75,0.00,,,0.00,meteohub,2013-03-11 20:27:00,
2013-03-11 20:37:00,31.5,24.4,30.14,NNE,33,8.0,13.0,75,0.00,,,0.00,meteohub,2013-03-11 20:37:00,
2013-03-11 20:42:00,31.3,24.3,30.14,NNE,13,6.0,14.0,75,0.00,,,0.00,meteohub,2013-03-11 20:42:00,
2013-03-11 20:47:00,30.9,23.9,30.14,NNE,31,2.0,14.0,75,0.00,,,0.00,meteohub,2013-03-11 20:47:00,
2013-03-11 20:57:00,30.9,23.9,30.14,NE,36,4.0,11.0,75,0.00,,,0.00,meteohub,2013-03-11 20:57:00,
2013-03-11 21:07:00,30.9,23.9,30.14,NNE,22,4.0,13.0,75,0.00,,,0.00,meteohub,2013-03-11 21:07:00,
2013-03-11 21:12:00,30.9,23.9,30.14,North,9,6.0,14.0,75,0.00,,,0.00,meteohub,2013-03-11 21:12:00,
2013-03-11 21:17:00,30.9,23.9,30.14,NNE,19,10.0,14.0,75,0.00,,,0.00,meteohub,2013-03-11 21:17:00,
2013-03-11 21:22:00,30.9,23.9,30.15,NE,56,4.0,14.0,75,0.00,,,0.00,meteohub,2013-03-11 21:22:00,
2013-03-11 21:27:00,30.7,23.7,30.15,NE,36,4.0,14.0,75,0.00,,,0.00,meteohub,2013-03-11 21:27:00,
2013-03-11 21:32:00,30.7,24.1,30.15,NNE,13,5.0,14.0,76,0.00,,,0.00,meteohub,2013-03-11 21:32:00,
2013-03-11 21:37:00,30.6,23.9,30.15,NNE,26,4.0,11.0,76,0.00,,,0.00,meteohub,2013-03-11 21:37:00,
2013-03-11 21:42:00,30.6,23.9,30.15,North,9,2.0,13.0,76,0.00,,,0.00,meteohub,2013-03-11 21:42:00,
2013-03-11 21:52:00,30.4,23.7,30.15,North,11,2.0,13.0,76,0.00,,,0.00,meteohub,2013-03-11 21:52:00,
2013-03-11 21:57:00,30.4,23.7,30.15,NE,49,6.0,10.0,76,0.00,,,0.00,meteohub,2013-03-11 21:57:00,
2013-03-11 22:02:00,30.2,23.5,30.15,NE,47,5.0,10.0,76,0.00,,,0.00,meteohub,2013-03-11 22:02:00,
2013-03-11 22:12:00,30.0,23.4,30.15,NNW,348,4.0,11.0,76,0.00,,,0.00,meteohub,2013-03-11 22:12:00,
2013-03-11 22:22:00,30.0,23.4,30.15,North,9,8.0,13.0,76,0.00,,,0.00,meteohub,2013-03-11 22:22:00,
2013-03-11 22:27:00,30.0,23.7,30.15,NE,44,6.0,11.0,77,0.00,,,0.00,meteohub,2013-03-11 22:27:00,
2013-03-11 22:32:00,30.0,23.7,30.15,NNE,20,6.0,11.0,77,0.00,,,0.00,meteohub,2013-03-11 22:32:00,
2013-03-11 22:42:00,30.0,23.7,30.15,NNE,25,4.0,14.0,77,0.00,,,0.00,meteohub,2013-03-11 22:42:00,
2013-03-11 22:47:00,30.0,23.7,30.16,North,355,9.0,14.0,77,0.00,,,0.00,meteohub,2013-03-11 22:47:00,
2013-03-11 22:52:00,30.0,23.7,30.16,NNE,21,8.0,14.0,77,0.00,,,0.00,meteohub,2013-03-11 22:52:00,
2013-03-11 23:02:00,29.8,23.5,30.16,NNE,28,5.0,13.0,77,0.00,,,0.00,meteohub,2013-03-11 23:02:00,
2013-03-11 23:07:00,29.8,23.5,30.16,North,355,6.0,13.0,77,0.00,,,0.00,meteohub,2013-03-11 23:07:00,
2013-03-11 23:12:00,29.7,23.4,30.16,NNE,26,4.0,13.0,77,0.00,,,0.00,meteohub,2013-03-11 23:12:00,
2013-03-11 23:22:00,29.3,23.4,30.16,North,5,6.0,10.0,78,0.00,,,0.00,meteohub,2013-03-11 23:22:00,
2013-03-11 23:32:00,29.1,23.2,30.16,North,355,4.0,10.0,78,0.00,,,0.00,meteohub,2013-03-11 23:32:00,
2013-03-11 23:37:00,29.1,23.2,30.16,NNE,31,4.0,10.0,78,0.00,,,0.00,meteohub,2013-03-11 23:37:00,
2013-03-11 23:42:00,28.9,23.0,30.16,NNE,13,6.0,10.0,78,0.00,,,0.00,meteohub,2013-03-11 23:42:00,
2013-03-11 23:47:00,29.1,23.4,30.16,NNE,27,9.0,10.0,79,0.00,,,0.00,meteohub,2013-03-11 23:47:00,
2013-03-11 23:52:00,29.3,23.5,30.17,North,11,4.0,11.0,79,0.00,,,0.00,meteohub,2013-03-11 23:52:00,